STARLINK Y

Last updated on June 19, 2020, 12:02 a.m. UTC

1 45752U 20038Y   20170.75001157  .00114396  11275-4  14202-3 0  9998
2 45752  52.9996 271.8082 0111327  69.6022 147.3104 15.96156497  2132

Satellite is not in orbit.